Location: Unspecified
(47.6578°N, 23.5640°E)
Time: 17:53:34
(UTC+03:00)

X-37B - Visible Passes

Search period start: 29 September 2020 00:00
Search period end: 09 October 2020 00:00
Orbit: 386 x 387 km, 45.0° (Epoch: 18 September)

Date Brightness Start Highest point End Pass type
(mag) Time Alt. Az. Time Alt. Az. Time Alt. Az.
02 Oct 2.9 20:37:43 10° SSW 20:38:37 14° S 20:38:37 14° S visible
03 Oct 3.0 19:40:55 10° SSE 19:41:29 10° SE 19:42:03 10° SE visible
03 Oct 3.2 21:14:35 10° SW 21:15:15 15° SW 21:15:15 15° SW visible
04 Oct 1.9 20:16:24 10° SSW 20:19:03 24° SSE 20:19:29 23° SE visible
05 Oct 1.9 20:53:47 10° WSW 20:55:54 32° SSW 20:55:54 32° SSW visible
06 Oct 1.6 19:55:27 10° SW 19:58:21 33° SSE 19:59:59 20° ESE visible
06 Oct 3.5 21:31:36 10° WSW 21:32:15 15° WSW 21:32:15 15° WSW visible
07 Oct 0.9 20:33:06 10° WSW 20:36:12 50° S 20:36:16 50° SSE visible
08 Oct 1.3 19:34:39 10° WSW 19:37:41 43° SSE 19:40:16 13° E visible
08 Oct 2.8 21:11:01 10° W 21:12:31 24° WSW 21:12:31 24° WSW visible
